Location: Fours
(44.3167°N, 6.7000°E)
Time: 10:03:31
(UTC+00:00)

Tiangong - Visible Passes

Search period start: 27 September 2021 00:00
Search period end: 07 October 2021 00:00
Orbit: 382 x 385 km, 41.5° (Epoch: 26 September)

Date Brightness Start Highest point End Pass type
(mag) Time Alt. Az. Time Alt. Az. Time Alt. Az.
27 Sep 2.8 04:35:31 10° SW 04:38:15 26° SSE 04:40:58 10° E visible
28 Sep 3.2 03:38:23 19° SSE 03:38:29 19° SSE 03:40:47 10° ESE visible
29 Sep 2.1 04:13:37 23° SW 04:15:03 36° SSE 04:17:59 10° E visible
30 Sep 3.5 03:16:35 19° ESE 03:16:35 19° ESE 03:17:57 10° E visible
30 Sep 1.6 04:48:47 11° WSW 04:51:44 50° S 04:54:49 10° E visible
01 Oct 1.6 03:51:43 44° S 03:51:51 44° S 03:54:53 10° E visible
02 Oct 4.4 02:54:39 12° E 02:54:39 12° E 02:54:54 10° E visible
02 Oct 1.5 04:26:51 23° WSW 04:28:33 49° S 04:31:37 10° ESE visible
03 Oct 2.7 03:29:47 31° ESE 03:29:47 31° ESE 03:31:42 10° E visible
04 Oct 1.6 04:04:56 41° SSW 04:05:18 43° S 04:08:20 10° ESE visible
05 Oct 4.1 03:07:56 14° ESE 03:07:56 14° ESE 03:08:27 10° ESE visible
05 Oct 2.5 04:40:08 16° WSW 04:41:53 26° SSW 04:44:34 10° SE visible
06 Oct 2.8 03:43:11 25° SSE 03:43:11 25° SSE 03:44:55 10° SE visible
